Dalhart, TX

8:50 PM CST on February 24, 2017 (GMT -0600)
Dalhart Municipal

Weather History for KDHT - October, 2013

Change the Weather History Date:

Tuesday, October 1, 2013

  Actual Average Record
Temperature  
Mean Temperature 68 °F 61 °F  
Max Temperature 87 °F 76 °F 94 °F (2000)
Min Temperature 48 °F 46 °F 34 °F (1965)
Degree Days  
Heating Degree Days 0 5  
Month to date heating degree days 0 5  
Since 1 July heating degree days 14 68  
Cooling Degree Days 3 1  
Month to date cooling degree days 3 1  
Year to date cooling degree days 1566 1129  
Growing Degree Days 17 (Base 50)    
Moisture  
Dew Point 41 °F    
Average Humidity 43    
Maximum Humidity 71    
Minimum Humidity 15    
Precipitation  
Precipitation 0.00 in 0.05 in 1.74 in (1982)
Month to date precipitation 0.00 0.05  
Year to date precipitation 6.66 15.05  
Snow  
Snow 0.00 in 0.00 in T in (1950)
Month to date snowfall 0.0 0.0  
Since 1 July snowfall 0.0 0.0  
Since 1 September snowfall 0.0 0.0  
Snow Depth 0.00 in    
Sea Level Pressure  
Sea Level Pressure 29.78 in    
Wind  
Wind Speed 9 mph (NNE)    
Max Wind Speed 18 mph    
Max Gust Speed 24 mph    
Visibility 10 miles    
Events      
T = Trace of Precipitation, MM = Missing Value Source: NWS Daily Summary

Daily Weather History Graph

Daily Weather History Graph

Search for Another Location

Airport or City:

Trip Planner

Search our weather history database for the weather conditions in past years. The results will help you decide how hot, cold, wet, or windy it might be!

Date:

Astronomy

Oct. 01, 2013 Rise Set
Actual Time 7:45 AM CDT 7:33 PM CDT
Civil Twilight 7:19 AM CDT 7:58 PM CDT
Nautical Twilight 6:50 AM CDT 8:28 PM CDT
Astronomical Twilight 6:20 AM CDT 8:58 PM CDT
Moon 4:27 AM CDT (10/1) 5:33 PM CDT (10/1)
Length of Visible Light 12h 39m
Length of Day
11h 47m
Waning Crescent, 12% of the Moon is Illuminated
Oct 1
Waning Crescent
Oct 4
New
Oct 11
First Quarter
Oct 18
Full
Oct 26
Last Quarter

Hourly Weather History & Observations

Time (CDT) Temp. Dew Point Humidity Pressure Visibility Wind Dir Wind Speed Gust Speed Precip Events Conditions
12:53 AM 59.0 °F 41.0 °F 51% 29.70 in 10.0 mi SSE 8.1 mph - N/A   Clear
1:53 AM 55.0 °F 39.9 °F 57% 29.72 in 10.0 mi Calm Calm - N/A   Clear
2:53 AM 55.9 °F 39.9 °F 55% 29.71 in 10.0 mi Calm Calm - N/A   Clear
3:53 AM 50.0 °F 39.9 °F 68% 29.71 in 10.0 mi NNW 6.9 mph - N/A   Clear
4:53 AM 48.9 °F 39.0 °F 69% 29.72 in 10.0 mi NW 8.1 mph - N/A   Clear
5:53 AM 50.0 °F 39.0 °F 66% 29.73 in 10.0 mi NW 10.4 mph - N/A   Clear
6:53 AM 48.0 °F 39.0 °F 71% 29.76 in 10.0 mi NW 6.9 mph - N/A   Clear
7:53 AM 48.9 °F 39.9 °F 71% 29.80 in 10.0 mi NW 6.9 mph - N/A   Clear
8:53 AM 55.9 °F 41.0 °F 57% 29.81 in 10.0 mi NW 3.5 mph - N/A   Clear
9:53 AM 66.9 °F 43.0 °F 42% 29.79 in 10.0 mi North 5.8 mph - N/A   Clear
10:53 AM 75.9 °F 36.0 °F 23% 29.80 in 10.0 mi North 16.1 mph - N/A   Clear
11:53 AM 79.0 °F 36.0 °F 21% 29.80 in 10.0 mi NNE 15.0 mph - N/A   Clear
12:53 PM 81.0 °F 37.0 °F 21% 29.80 in 10.0 mi NNE 15.0 mph 24.2 mph N/A   Clear
1:53 PM 84.0 °F 35.1 °F 17% 29.79 in 10.0 mi NNE 12.7 mph - N/A   Clear
2:53 PM 86.0 °F 33.1 °F 15% 29.78 in 10.0 mi ENE 13.8 mph 17.3 mph N/A   Clear
3:53 PM 86.0 °F 35.1 °F 16% 29.78 in 10.0 mi NE 13.8 mph 19.6 mph N/A   Clear
4:53 PM 84.9 °F 37.0 °F 18% 29.78 in 10.0 mi NE 13.8 mph 19.6 mph N/A   Clear
5:53 PM 82.0 °F 41.0 °F 23% 29.80 in 10.0 mi ENE 13.8 mph - N/A   Clear
6:53 PM 79.0 °F 46.9 °F 32% 29.82 in 10.0 mi ENE 10.4 mph - N/A   Clear
7:53 PM 72.0 °F 48.0 °F 43% 29.84 in 10.0 mi NE 9.2 mph - N/A   Clear
8:53 PM 69.1 °F 48.0 °F 47% 29.84 in 10.0 mi NE 8.1 mph - N/A   Clear
9:53 PM 66.9 °F 50.0 °F 54% 29.83 in 10.0 mi ENE 9.2 mph - N/A   Clear
10:53 PM 63.0 °F 51.1 °F 65% 29.81 in 10.0 mi NE 6.9 mph - N/A   Clear
11:53 PM 62.1 °F 52.0 °F 70% 29.81 in 10.0 mi NE 5.8 mph - N/A   Clear